Regional Weather Roundup
Issued by NWS Portland, ME

Current Version | Previous Version | Text Only | Print | Product List | Glossary Off
Versions: 1 2 3 4 5 6 7 8 9 10 11 12 13 14 15 16 17 18 19 20 21 22 23 24 25 26 27 28 29 30 31 32 33 34 35 36 37 38 39 40 41 42 43 44 45 46 47 48 49 50
000 ASUS41 KGYX 291710 RWRGYX WEATHER ROUNDUP FOR MAINE AND NEW HAMPSHIRE NATIONAL WEATHER SERVICE GRAY ME 100 PM EDT MON MAY 29 2017 MEZ002-005-006-010-012-015-018-020-021-024-026-027-029-291800- MAINE CITY SKY/WX TMP DP RH WIND PRES REMARKS PORTLAND LGT RAIN 47 45 93 E18G25 30.10F VSB 1 SANFORD LGT RAIN 48 47 96 E6 30.09R BAR HARBOR CLOUDY 51 44 77 E12 30.13F WISCASSET CLOUDY 51 44 77 E12 30.13R ROCKLAND CLOUDY 48 44 86 E15 30.13R FRYEBURG CLOUDY 48 46 93 SE7 30.09S LEWISTONAUBURN CLOUDY 49 45 86 SE7 30.10R AUGUSTA CLOUDY 51 43 74 E7 30.11R WATERVILLE CLOUDY 55 46 71 VRB7 30.08R BANGOR PTSUNNY 58 47 66 SE14 30.11F GREENVILLE N/A 49 45 86 VRB6 30.06F MILLINOCKET CLOUDY 56 47 71 VRB5 30.12F HOULTON CLOUDY 54 47 77 E9 30.12F PRESQUE ISLE CLOUDY 55 47 74 E9G20 30.12S FRENCHVILLE CLOUDY 48 45 89 E8 30.11F CARIBOU CLOUDY 55 46 71 SE13 30.11F $$ NHZ002-005-008-009-011-012-014-291800- NEW HAMPSHIRE CITY SKY/WX TMP DP RH WIND PRES REMARKS PORTSMOUTH CLOUDY 47 46 96 E13 30.06R FOG ROCHESTER CLOUDY 48 45 89 E9 30.06S FOG NASHUA CLOUDY 51 49 92 E8 30.06R MANCHESTER CLOUDY 51 45 79 E9 30.04R CONCORD CLOUDY 50 46 86 E7 30.06R LACONIA CLOUDY 49 46 90 E12 30.06R PLYMOUTH LGT RAIN 51 46 84 E6 30.04R BERLIN CLOUDY 53 44 71 SE9 30.03S WHITEFIELD CLOUDY 54 43 66 S10G22 30.01R JAFFREY LGT RAIN 50 49 96 VRB3 30.02R KEENE LGT RAIN 55 50 83 VRB5 30.01R LEBANON LGT RAIN 54 50 86 VRB3 30.00R MT WASHINGTON LGTSLEET 37 37 100 SE23 N/A VSB 1/2 $$ VTZ005-007-008-291800- VERMONT CITY SKY/WX TMP DP RH WIND PRES REMARKS ST JOHNSBURY N/A 54 49 83 MISG 29.98R MONTPELIER LGT RAIN 52 51 97 S13 30.02S BURLINGTON LGT RAIN 57 54 89 S10 29.93S $$ MAZ007-012-024-CTZ003-RIZ002-NYZ038-NYZ072-291800- SOUTHERN NEW ENGLAND AND NY CITY SKY/WX TMP DP RH WIND PRES REMARKS BOSTON CLOUDY 50 49 96 E13 30.04S VSB 1/2 WORCESTER CLOUDY 49 45 86 E9 30.02R NANTUCKET RAIN 50 48 93 E16 29.95F FOG PROVIDENCE CLOUDY 54 51 90 NE12 30.01R HARTFORD LGT RAIN 58 53 84 SE10 29.98F ALBANY LGT RAIN 56 53 90 S7 29.97R NEW YORK CITY LGT RAIN 57 53 86 NE15 29.98R $$ ANZ081-ANZ082-ANZ150-NHZ014-MEZ023>029-291800- COASTAL MARINE OBSERVATIONS STATION/POSITION TIME TEMP WIND PRES WAVE AIR SEA DIR/SP/G HT/PER (UTC) (F) (DEG/KT/KT) (MB) (FT/S) MOUNT DESERT ROC 1700 44 1020.0F MATINICUS ROCK 1600 44 90/ 20/ 22 1019.0F ISLE OF SHOALS 1600 46 80/ 19/ 20 1017.3R JEFFREYS LEDGE 1606 49 N/A 4/ 5 CASHES LEDGE BUO 1650 47 48 1017.7F 4/ 5 GEORGES BANK BUO 1550 49 47 1014.7 4/ 8 $$ .............KEY.............. WCI - WIND CHILL TC - TEMPERATURE IN CELSIUS VSB - VISIBILITY IN MILES HX - HEAT INDEX FAIR- INDICATES FEW OR NO CLOUDS BELOW 12,000 FT, WITH NO SIGNIFICANT WEATHER AND/OR OBSTRUCTIONS TO VISIBILITY.

USA.gov is the U.S. government's official web portal to all federal, state and local government web resources and services.